sat.trackr.live / text

‹ back to catalog

STARLINK-32602

NORAD 62181 · 2024-225U

PAYLOAD ACTIVE UNKNOWN

§ Identity

Operator
Country
US
Launch date
2024-11-30
Launch site
AFWTR
Launch vehicle
Mass (kg)
RCS (m²)

Purposes: comms

External: N2YO · Heavens-Above · Gunter

§ Orbital elements

Epoch: 2026-05-25T04:33:40.758912Z

Period
96.11 min
Inclination
70.0018°
Eccentricity
0.0002400
Mean motion
14.98337768 rev/d
Perigee alt
570.4 km
Apogee alt
573.7 km
Semi-major
6,950.2 km
B*
2.7429e-4
RAAN
321.5804°
Arg perigee
271.9596°
Mean anomaly
88.1289°
Rev number
8,158

§ Raw data

STARLINK-326021 62181U 24225U   26145.19005508  .00003182  00000+0  27429-3 0  99992 62181  70.0018 321.5804 0002400 271.9596  88.1289 14.98337768 81588

JSON: /api/v1/satellites/62181 · /tle

For live sub-satellite position, see the globe view (requires WebGL).

§ Visibility from observer

Set your observer location to see the next 7 days of passes ≥ 10°. The values pass through the URL so the page stays shareable.

No JS? Fill the form by hand. The geolocation button needs JavaScript.